SL-18 DEB, 28292

Orbit data source: Space-Track

SL-18 DEB, 28292 is space debris in LEO originally from a launch on Thu, 25 Mar 1993 UTC launched from the Plesetsk Missile And Space Complex (PKMTR). Debris objects in space refer to the collection of defunct objects orbiting the Earth. Examples of debris include non-operational satellites, rocket bodies, and fragments generated from explosions, collisions, or faulty payload assembly.

Loading next visibility...
Identifier
28292, 1993-014V
Orbit
LEO
Country
Flag of CISCIS
Related business
Manufacturer
Kompleks-MIT
Mission
Spacecraft
Bus & Motor
Unknown
Mass
Unknown
Launch date (UTC)
1993-03-25 (33 years ago)
Launch vehicle
Unknown
Launch site
Plesetsk Missile And Space Complex (PKMTR)
Object type
Payload
Rocket body
Debris
Shape & HBR
Unknown shape, 0.1 m
Radar Cross Section
Small (<0.1 m²)

Expand to show TLE details & history
Last TLE update: 2 days ago

TLE from 2 days ago
0 SL-18 DEB
1 28292U 93014V   26171.33957793  .00001659  00000-0  41388-3 0  9991
2 28292  75.7562  35.2415 0129251  54.3147 306.9969 14.47092241684454
Epoch: 2026-06-20T08:08Z
TLE epoch observation values (Epoch: 2026-06-20T08:08:59.533Z)
Latitude
-0.00004°
Longitude
4.43782°
Altitude
683.31 km
Speed
7.544 km/s
True Right ascension
02h 20m 57s
True Declination
0° 00' 00"
Sunlit
Object was in daylight at epoch
Visualization orbit readout
Latitude
Unknown
Longitude
Unknown
Altitude
Unknown
Speed
Unknown
Apparent Right ascension
Unknown
Apparent Declination
Unknown
Sunlit
N/A
Visualization observer readout
Local Sidereal Time
02:18:50
Azimuth
Unknown
Elevation
Unknown
Doppler factor
Unknown
Orbital elements
Apogee altitude
824.54 km
Perigee altitude
640.725 km
Semi-major axis
7,110.769 km
Eccentricity
0.01293
Inclination
75.7562°
RAAN
35.2415°
Arg. of periapsis
54.3147°
True anomaly
305.80246°
Mean anomaly
306.9969°
Eccentric anomaly
306.40084°
Mean motion
3.61966 °/min
Orbital period
99.46 mins
BSTAR
0.00041388
Loading maneuver chart data...
Computing Atmospheric mass density...
Loading historical data...
Loading historical data...
Loading historical data...
Loading historical data...
Loading historical data...
Loading historical data...
Loading historical data...

Documentation

Showing up to 5 results
|